| time (UTC) | temp C | wind direction | speed KPH | gust KPH | rain 1hr cm | rain 24hr cm | rain mn cm | humidity % | barometer mb |
| 20260502220019 | 11 | 255 | 0.0 | 3.2 | 0.00 | 0.36 | 0.36 | 88 | 1012.0 |
| 20260502214518 | 11 | 236 | 0.0 | 3.2 | 0.00 | 0.36 | 0.36 | 88 | 1011.9 |
| 20260502213034 | 11 | 252 | 0.0 | 3.2 | 0.00 | 0.36 | 0.36 | 88 | 1011.7 |
| 20260502211507 | 11 | 261 | 0.0 | 1.6 | 0.00 | 0.36 | 0.36 | 88 | 1012.0 |
| 20260502210012 | 11 | 190 | 0.0 | 3.2 | 0.00 | 0.36 | 0.36 | 88 | 1012.0 |
| 20260502204516 | 12 | 148 | 0.0 | 3.2 | 0.00 | 0.36 | 0.36 | 88 | 1012.0 |
| 20260502203020 | 12 | 92 | 0.0 | 1.6 | 0.00 | 0.36 | 0.36 | 88 | 1012.3 |
| 20260502201534 | 12 | 92 | 0.0 | 0.0 | 0.00 | 0.36 | 0.36 | 88 | 1012.2 |
| 20260502200008 | 12 | 92 | 0.0 | 0.0 | 0.00 | 0.36 | 0.36 | 88 | 1012.1 |
| 20260502194508 | 12 | 92 | 0.0 | 1.6 | 0.00 | 0.36 | 0.36 | 88 | 1012.1 |
| 20260502193016 | 12 | 138 | 0.0 | 3.2 | 0.00 | 0.36 | 0.36 | 88 | 1012.1 |
| 20260502191522 | 12 | 172 | 0.0 | 3.2 | 0.00 | 0.36 | 0.36 | 87 | 1012.1 |
| 20260502190025 | 12 | 156 | 0.0 | 1.6 | 0.00 | 0.36 | 0.36 | 87 | 1012.2 |
| 20260502184511 | 12 | 238 | 0.0 | 3.2 | 0.00 | 0.36 | 0.36 | 87 | 1012.3 |
| 20260502183014 | 12 | 130 | 0.0 | 1.6 | 0.00 | 0.36 | 0.36 | 87 | 1012.2 |
| 20260502181527 | 12 | 84 | 0.0 | 3.2 | 0.00 | 0.36 | 0.36 | 87 | 1012.2 |
| 20260502163025 | 13 | 32 | 0.0 | 3.2 | 0.18 | 0.36 | 0.36 | 87 | 1013.3 |
| 20260502161514 | 13 | 126 | 0.0 | 3.2 | 0.25 | 0.33 | 0.33 | 87 | 1013.4 |
| 20260502151528 | 14 | 122 | 1.6 | 8.0 | 0.08 | 0.08 | 0.08 | 81 | 1014.3 |
| 20260502123021 | 18 | 133 | 3.2 | 11.3 | 0.00 | 0.00 | 0.00 | 55 | 1016.1 |
| 20260502121504 | 18 | 193 | 0.0 | 9.7 | 0.00 | 0.00 | 0.00 | 55 | 1016.2 |
| 20260502114506 | 18 | 186 | 3.2 | 9.7 | 0.00 | 0.00 | 0.00 | 55 | 1016.6 |
| 20260502113010 | 18 | 136 | 0.0 | 9.7 | 0.00 | 0.00 | 0.00 | 56 | 1016.7 |
| 20260502111510 | 19 | 87 | 3.2 | 8.0 | 0.00 | 0.00 | 0.00 | 57 | 1017.0 |
| 20260502110009 | 19 | 28 | 0.0 | 8.0 | 0.00 | 0.00 | 0.00 | 55 | 1017.2 |
| 20260502104514 | 18 | 146 | 1.6 | 9.7 | 0.00 | 0.00 | 0.00 | 57 | 1017.6 |
| 20260502103014 | 17 | 75 | 1.6 | 12.9 | 0.00 | 0.00 | 0.00 | 60 | 1017.9 |
| 20260502101512 | 17 | 40 | 3.2 | 8.0 | 0.00 | 0.00 | 0.00 | 59 | 1017.9 |
| 20260502091516 | 15 | 175 | 1.6 | 8.0 | 0.00 | 0.00 | 0.00 | 67 | 1018.2 |
| 20260502071514 | 11 | 61 | 0.0 | 3.2 | 0.00 | 0.00 | 0.00 | 79 | 1018.9 |
| 20260502070030 | 11 | 141 | 0.0 | 3.2 | 0.00 | 0.00 | 0.00 | 82 | 1019.1 |
| 20260502064518 | 10 | 172 | 0.0 | 6.4 | 0.00 | 0.00 | 0.00 | 82 | 1019.1 |
| 20260502063021 | 10 | 164 | 1.6 | 6.4 | 0.00 | 0.00 | 0.00 | 83 | 1019.1 |
| 20260502061516 | 10 | 147 | 1.6 | 4.8 | 0.00 | 0.00 | 0.00 | 83 | 1019.2 |
| 20260502060032 | 9 | 155 | 0.0 | 4.8 | 0.00 | 0.00 | 0.00 | 85 | 1019.0 |
| 20260502054503 | 8 | 173 | 0.0 | 1.6 | 0.00 | 0.00 | 0.00 | 86 | 1019.1 |
| 20260502053005 | 8 | 231 | 0.0 | 1.6 | 0.00 | 0.00 | 0.00 | 86 | 1019.1 |
| 20260502051511 | 8 | 232 | 0.0 | 0.0 | 0.00 | 0.00 | 0.00 | 86 | 1019.1 |
| 20260502050019 | 8 | 232 | 0.0 | 1.6 | 0.00 | 0.00 | 0.00 | 85 | 1019.0 |
| 20260502044517 | 8 | 232 | 0.0 | 0.0 | 0.00 | 0.00 | 0.00 | 85 | 1019.1 |
| 20260502043002 | 8 | 232 | 0.0 | 1.6 | 0.00 | 0.00 | 0.00 | 85 | 1019.0 |
| 20260502041520 | 8 | 232 | 0.0 | 3.2 | 0.00 | 0.00 | 0.00 | 85 | 1019.2 |
| 20260502040032 | 8 | 232 | 0.0 | 1.6 | 0.00 | 0.00 | 0.00 | 85 | 1019.3 |
| 20260502034518 | 8 | 232 | 0.0 | 1.6 | 0.00 | 0.00 | 0.00 | 84 | 1019.4 |
| 20260502033030 | 8 | 232 | 0.0 | 3.2 | 0.00 | 0.00 | 0.00 | 83 | 1019.5 |
| 20260502031505 | 9 | 246 | 1.6 | 4.8 | 0.00 | 0.00 | 0.00 | 83 | 1019.6 |
| 20260502030010 | 9 | 247 | 0.0 | 3.2 | 0.00 | 0.00 | 0.00 | 83 | 1019.7 |
| 20260502024514 | 8 | 268 | 0.0 | 4.8 | 0.00 | 0.00 | 0.00 | 83 | 1019.7 |
| 20260502023029 | 9 | 249 | 1.6 | 4.8 | 0.00 | 0.00 | 0.00 | 83 | 1019.7 |
| 20260502021523 | 8 | 250 | 1.6 | 4.8 | 0.00 | 0.00 | 0.00 | 82 | 1019.9 |
| 20260502020026 | 9 | 221 | 1.6 | 8.0 | 0.00 | 0.00 | 0.00 | 81 | 1019.9 |
| 20260502014511 | 9 | 217 | 0.0 | 4.8 | 0.00 | 0.00 | 0.00 | 81 | 1020.0 |
| 20260502013016 | 8 | 248 | 0.0 | 4.8 | 0.00 | 0.00 | 0.00 | 82 | 1020.1 |
| 20260502011522 | 8 | 223 | 0.0 | 3.2 | 0.00 | 0.00 | 0.00 | 82 | 1020.1 |
| 20260502010025 | 9 | 232 | 1.6 | 4.8 | 0.00 | 0.00 | 0.00 | 81 | 1020.3 |
| 20260502004527 | 9 | 236 | 1.6 | 4.8 | 0.00 | 0.00 | 0.00 | 81 | 1020.4 |
| 20260502003015 | 8 | 262 | 0.0 | 1.6 | 0.00 | 0.00 | 0.00 | 82 | 1020.4 |
| 20260502001520 | 9 | 262 | 0.0 | 3.2 | 0.00 | 0.00 | 0.00 | 80 | 1020.4 |
| 20260502000040 | 10 | 250 | 0.0 | 4.8 | 0.00 | 0.00 | 0.00 | 80 | 1020.6 |
| 20260501234528 | 10 | 244 | 0.0 | 3.2 | 0.00 | 0.00 | 0.00 | 81 | 1020.7 |
| 20260501233026 | 10 | 229 | 0.0 | 1.6 | 0.00 | 0.00 | 0.00 | 83 | 1020.8 |
| 20260501231520 | 10 | 229 | 0.0 | 1.6 | 0.00 | 0.00 | 0.00 | 83 | 1021.0 |
| 20260501230007 | 10 | 229 | 0.0 | 1.6 | 0.00 | 0.00 | 0.00 | 83 | 1021.1 |
| 20260501224508 | 10 | 219 | 0.0 | 3.2 | 0.00 | 0.00 | 0.00 | 85 | 1021.1 |
| 20260501223017 | 10 | 111 | 0.0 | 3.2 | 0.00 | 0.00 | 0.00 | 84 | 1021.0 |
| 20260501221514 | 10 | 252 | 0.0 | 1.6 | 0.00 | 0.00 | 0.00 | 85 | 1021.0 |